This is the latest recevied weather packets stored in our database for station/object KG5TTF. If no packets are shown the sender has not sent any weather packets the latest 10 day(s).
| Time | Temp. | Humidity | Pressure | Rain* | Wind** | Luminosity | Snow |
|---|---|---|---|---|---|---|---|
| 1777700573 | 5° C | 42% | 1026.1 hPa | 0 mm | - | 0 W/m² | - |
| 1777700270 | 5° C | 43% | 1026.3 hPa | 0 mm | - | 0 W/m² | - |
| 1777699967 | 5° C | 42% | 1026.3 hPa | 0 mm | - | 0 W/m² | - |
| 1777699665 | 4.44° C | 43% | 1026 hPa | 0 mm | - | 0 W/m² | - |
| 1777699363 | 3.89° C | 46% | 1026.1 hPa | 0 mm | - | 0 W/m² | - |
| 1777699060 | 3.89° C | 47% | 1026.3 hPa | 0 mm | - | 0 W/m² | - |
| 1777698759 | 3.89° C | 47% | 1026.1 hPa | 0 mm | - | 0 W/m² | - |
| 1777698454 | 3.33° C | 46% | 1026 hPa | 0 mm | - | 0 W/m² | - |
| 1777698151 | 3.89° C | 46% | 1026 hPa | 0 mm | - | 0 W/m² | - |
| 1777697848 | 3.89° C | 47% | 1026.1 hPa | 0 mm | - | 0 W/m² | - |
| 1777697545 | 4.44° C | 47% | 1025.9 hPa | 0 mm | - | 0 W/m² | - |
| 1777697242 | 4.44° C | 47% | 1026 hPa | 0 mm | - | 0 W/m² | - |
| 1777696938 | 4.44° C | 43% | 1025.9 hPa | 0 mm | - | 0 W/m² | - |
| 1777696635 | 4.44° C | 44% | 1026 hPa | 0 mm | - | 0 W/m² | - |
| 1777696333 | 5° C | 43% | 1025.9 hPa | 0 mm | - | 0 W/m² | - |
| 1777696032 | 5° C | 43% | 1026 hPa | 0 mm | - | 0 W/m² | - |
| 1777695730 | 5° C | 42% | 1026 hPa | 0 mm | - | 0 W/m² | - |
| 1777695428 | 5.56° C | 41% | 1025.8 hPa | 0 mm | - | 0 W/m² | - |
| 1777695124 | 5° C | 43% | 1025.7 hPa | 0 mm | - | 0 W/m² | - |
| 1777694821 | 4.44° C | 43% | 1025.7 hPa | 0 mm | - | 0 W/m² | - |
| 1777694518 | 4.44° C | 43% | 1025.7 hPa | 0 mm | - | 0 W/m² | - |
| 1777694214 | 4.44° C | 43% | 1025.7 hPa | 0 mm | - | 0 W/m² | - |
| 1777693911 | 4.44° C | 42% | 1025.5 hPa | 0 mm | - | 0 W/m² | - |
| 1777693609 | 5° C | 42% | 1025.4 hPa | 0 mm | - | 0 W/m² | - |
| 1777693307 | 5° C | 41% | 1025.4 hPa | 0 mm | - | 0 W/m² | - |
* Rain latest hour (hover to see other rain measurements)
** Current wind speed in m/s (hover to see current wind gust speed)